Regional Weather Roundup
Issued by NWS

Home | Current Version | Previous Version | Text Only | Print | Product List | Glossary On
Versions: 1 2 3 4 5 6 7 8 9 10 11 12 13 14 15 16 17 18 19 20 21 22 23 24 25 26 27 28 29 30 31 32 33 34 35 36 37 38 39 40 41 42 43 44 45 46 47 48 49 50
000
ASHW40 PHFO 302010
RWRHI

WEATHER ROUNDUP FOR HAWAII
NATIONAL WEATHER SERVICE HONOLULU HI
1000 AM HST TUE SEP 30 2014

THIS IS AN AUTOMATED REPORT THAT HAS NOT BEEN QUALITY CONTROLLED.

NOTE..."FAIR" INDICATES FEW OR NO CLOUDS BELOW 12,000 FEET WITH NO
SIGNIFICANT WEATHER AND/OR OBSTRUCTIONS TO VISIBILITY.

* - THESE SITES REPORT LIMITED FIELDS

HIZ001>004-302100-
KAUAI-NIIHAU-

CITY           SKY/WX    TMP DP  RH WIND       PRES   REMARKS
LIHUE APT      SUNNY     84  72  67 NE7       29.97F
PORT ALLEN*      N/A     84 N/A N/A W8          N/A
POIPU*           N/A     86 N/A N/A E3          N/A
PRINCEVILLE*   NOT AVBL
KOKOLE POINT*  NOT AVBL
MOLOAA DAIRY*  NOT AVBL
WAIMEA HTS*    NOT AVBL
PUU OPAE*      NOT AVBL
PUU LUA*       NOT AVBL
MAKAHA RIDGE*  NOT AVBL
$$

HIZ005>011-302100-
OAHU-

CITY           SKY/WX    TMP DP  RH WIND       PRES   REMARKS
HONOLULU       MOSUNNY   84  72  67 S9        29.94F
KALAELOA       SUNNY     85  74  69 SE9       29.96F HX  92
KANEOHE MCB    SUNNY     82  75  78 E7        29.95F
WHEELER FIELD  MOSUNNY   84  68  58 SE3       30.01F
BELLOWS*       NOT AVBL
KAHUKU*        NOT AVBL
WHEELER*       NOT AVBL
WAIANAE HARBOR NOT AVBL
DILLINGHAM*      N/A     91  73  55 N1          N/A  HX 100
KAHUKU TRN*      N/A     86  73  66 E5G10       N/A  HX  93
KAWAILOA*      NOT AVBL
KII*             N/A     82  73  74 E9          N/A
MAKUA RANGE*     N/A     84  72  65 W5          N/A
OAHU FOREST NW NOT AVBL
SCHOFIELD BRK*   N/A     66  54  63 MISG        N/A
SCHOFIELD S*   NOT AVBL
WAIANAE VLY*   NOT AVBL
KUAOKALA*      NOT AVBL
HONOULIUULI*   NOT AVBL
MOKUOLOE IS*     N/A    N/A N/A N/A MISG        N/A
PALEHUA*       NOT AVBL
WAIAWA PHB*    NOT AVBL
$$

HIZ012>013-302100-
MOLOKAI-

CITY           SKY/WX    TMP DP  RH WIND       PRES   REMARKS
MOLOKAI AIRPT  MOSUNNY   84  74  71 S9        29.97F HX  91
KALAUPAPA      NOT AVBL
MAKAPULAPAI*   NOT AVBL
MOLOKAI 1*     NOT AVBL
PUU ALII*      NOT AVBL
$$

HIZ016-302100-
KAHOOLAWE-

CITY           SKY/WX    TMP DP  RH WIND       PRES   REMARKS
KAHOOLAWE*     NOT AVBL
HAKIOAWA*      NOT AVBL
HONOKANAIA*      N/A     85  71  63 E13G21    29.98F HX  90
KANELOA*         N/A     79  70  73 E12G18    29.21F
KEALIALALO*    NOT AVBL
LUA MAKIKA*    NOT AVBL
$$

HIZ014>015-302100-
LANAI-

CITY           SKY/WX    TMP DP  RH WIND       PRES   REMARKS
LANAI CITY       N/A     77  73  87 SE3       30.04R
LANAI 1*       NOT AVBL
$$

HIZ017>028-302100-
MAUI-

CITY           SKY/WX    TMP DP  RH WIND       PRES   REMARKS
KAHULUI        MOSUNNY   86  69  56 N7        29.96F HX  90
KAPALUA-W MAUI MOSUNNY   82  70  65 W3        29.98
HANA AIRPORT   NOT AVBL
HANA*          NOT AVBL
HALEAKALA SUMM   N/A     54  46  76 E10         N/A
MAALAEA BAY*   NOT AVBL
HALEAKALA*     NOT AVBL
KAUPO GAP*     NOT AVBL
KULA 1*          N/A     62  58  88 NW3         N/A
$$

HIZ023>026-302100-
BIG ISLAND OF HAWAII COAST AND LOWER SLOPES-

CITY           SKY/WX    TMP DP  RH WIND       PRES   REMARKS
KAILUA KONA    MOSUNNY   86  68  54 SW12      29.94F
HILO           PTSUNNY   85  70  60 NW6       29.97F
HONOKAA*       NOT AVBL
KAWAIHAE MWT*  NOT AVBL
KAWAIHAE*        N/A     82 N/A N/A W9          N/A
SOUTH POINT*   NOT AVBL
UPOLU AIRPORT* NOT AVBL
KAMUELA*       PTCLDY    77  64  65 NE18      30.08S
HAKALAU*         N/A     65  56  74 E3          N/A
KALOKO-HONOKO* NOT AVBL
PALI 2*          N/A     75  -6   4 NE9         N/A
KEALAKOMO*       N/A     84  66  54 N10G18      N/A
KAUPULEHU*     NOT AVBL
KAPAPALA*        N/A     80  68  67 CALM        N/A
LOWER KAHUKU*  NOT AVBL
PUHE CS*       NOT AVBL
PUHO CS*       NOT AVBL
PTA KEAMUKU*     N/A    N/A N/A N/A S3G10       N/A
WAIKOLOA*      NOT AVBL
$$

HIZ027>028-302100-
BIG ISLAND OF HAWAII INTERIOR AND SUMMMITS-

CITY           SKY/WX    TMP DP  RH WIND       PRES   REMARKS
BRADSHAW FIELD SUNNY     69  49  48 SW3       30.33F
MK VISITOR CEN NOT AVBL
MAUNA KEA*       N/A     41  25  52 SE1         N/A
MAUNA LOA*       N/A    N/A N/A N/A MISG        N/A
MAUNA LOA 1*   NOT AVBL
PTA KIPUKA*      N/A    N/A N/A N/A NW3G9       N/A
PTA RANGE 17*    N/A     73  55  53 NW7         N/A
PTA WEST*        N/A     72  59  64 NW7G15      N/A
NENE CABIN*    NOT AVBL
AHUMOA*        NOT AVBL
PTA PORTABLE*  NOT AVBL
PUU MALI*      NOT AVBL
$$

HIC003-302100-
NORTHWEST ISLANDS-

CITY           SKY/WX    TMP DP  RH WIND       PRES   REMARKS
MIDWAY ISLAND  SUNNY     82  64  54 CALM      29.99R
MIDWAY NOS*    NOT AVBL
FRENCH FRIGATE NOT AVBL
$$

PHZ110>124-180-302100-
BUOY REPORTS

STATION/POSITION TIME  TEMP    WIND        PRES    WAVE   SWELL
                       AIR SEA DIR/SP/G            HT/PER HT/DIR
                 (UTC) (F)     (DEG/KT/KT) (MB)    (FT/S) (FT/D)
BUOY 51001       NOT AVBL
BUOY 51101       NOT AVBL
BUOY 51100       1900   79 81  120/ 10/ 12 1015.6
BUOY 51003       1900   82 83  100/  8/ 12 1014.1R   6/17   5
BUOY 51004       1949   80 81   60/ 12/ 17 1014.1F   7/11   7/120
BARBERS PT BUOY  NOT AVBL
WAIMEA BAY BUOY  2000      83                N/A     4/18   2/320
KAILUA BAY BUOY  2000      83                N/A     4/ 9   2/ 10
LANAI BUOY       NOT AVBL
BARBERS PT 2     2000      83                N/A     4/18   3/220
PAUWELA MAUI     2000      81                N/A     5/ 8   2/320
HILO             2000      81                N/A     5/ 8   2/ 70
KANEOHE BAY BUOY NOT AVBL
HANALEI KAUAI    NOT AVBL
KAHULUI HARBOR   2000   81 81  360/  6/  8 1014.4F
HONOLULU HARBOR  2000   84     170/  6/ 11 1014.5F
KILO NALU        NOT AVBL
HILO HARBOR      2000   81     310/  4/  5 1014.7F
MOKUOLOE         2000      84              1014.4F
NAWILIWILI       2000      83                N/A
WHOTS BUOY       NOT AVBL
BUOY 51028       NOT AVBL
$$

......................KEY........................................
  SKY/WX - SKY CONDITIONS/PRESENT WEATHER
  TMP    - TEMPERATURE IN FAHRENHEIT
  DWPT   - DEWPOINT IN FAHRENHEIT
  RH     - RELATIVE HUMIDITY IN PERCENT
  WIND   - DIRECTION AND SPEED /MPH FOR ISLANDS...KTS FOR BUOYS/
  PRES   - MEAN SEA LEVEL PRESSURE IN INCHES OF HG
  VSB    - VISIBILITY IN MILES
  HX     - HEAT INDEX
  WCI    - WIND CHILL INDEX
  VRB    - VARIABLE WIND DIRECTION
  N/A    - NOT AVAILABLE



USA.gov is the U.S. government's official web portal to all federal, state and local government web resources and services.